• In Russia
  • List of Countries
  • For 7 days
  • Water Temperature
  • Satellite Maps
  • Weather Map
  • Weather Widgets
  • user-avatar
    Login

    Hourly Weather Louangphabang

    Today, 17 October, Wednesday

    Time Temperature Precipitation Wind Pressure Humidity
    00:00 +21°C° 0.3 mm 0 mps 698 mmHg 95%
    01:00 +20°C° 0.3 mm 0 mps 698 mmHg 96%
    02:00 +20°C° 0.5 mm 0 mps 698 mmHg 96%
    03:00 +20°C° 0.5 mm 0 mps 697 mmHg 97%
    04:00 +20°C° 0.5 mm 0 mps 697 mmHg 97%
    05:00 +20°C° 0.1 mm 0 mps 698 mmHg 96%
    06:00 +20°C° 0.1 mm 0 mps 698 mmHg 95%
    07:00 +21°C° 0.1 mm 0 mps 698 mmHg 94%
    08:00 +23°C° 0.5 mm 0 mps 699 mmHg 86%
    09:00 +26°C° 0.5 mm 0 mps 699 mmHg 77%
    10:00 +28°C° 0.5 mm 0 mps 699 mmHg 68%
    11:00 +29°C° 0.3 mm 0 mps 699 mmHg 64%
    12:00 +32°C° 0.3 mm 1 mps 698 mmHg 60%
    13:00 +33°C° 0.3 mm 1 mps 698 mmHg 56%
    14:00 +32°C° 0.5 mm 1 mps 697 mmHg 59%
    15:00 +31°C° 0.5 mm 1 mps 696 mmHg 63%
    16:00 +30°C° 0.5 mm 1 mps 696 mmHg 67%
    17:00 +28°C° 0.2 mm 1 mps 696 mmHg 74%
    18:00 +25°C° 0.2 mm 0 mps 696 mmHg 80%
    19:00 +23°C° 0.2 mm 0 mps 696 mmHg 87%
    20:00 +22°C° 0 mm 0 mps 696 mmHg 88%
    21:00 +22°C° 0 mm 0 mps 697 mmHg 90%
    22:00 +21°C° 0 mm 0 mps 697 mmHg 91%
    23:00 +21°C° 0.1 mm 0 mps 697 mmHg 93%

    Tomorrow, 18 October, Thursday

    Time Temperature Precipitation Wind Pressure Humidity
    00:00 +21°C° 0.1 mm 0 mps 697 mmHg 94%
    01:00 +20°C° 0.1 mm 0 mps 697 mmHg 95%
    02:00 +20°C° 0.1 mm 0 mps 697 mmHg 95%
    03:00 +20°C° 0.1 mm 0 mps 696 mmHg 96%
    04:00 +20°C° 0.1 mm 0 mps 696 mmHg 97%
    05:00 +20°C° 0 mm 0 mps 697 mmHg 96%
    06:00 +21°C° 0 mm 0 mps 697 mmHg 94%
    07:00 +21°C° 0 mm 0 mps 698 mmHg 93%
    08:00 +23°C° 0.2 mm 0 mps 698 mmHg 85%
    09:00 +25°C° 0.2 mm 0 mps 699 mmHg 77%
    10:00 +27°C° 0.2 mm 0 mps 699 mmHg 69%
    11:00 +29°C° 0.1 mm 0 mps 699 mmHg 62%
    12:00 +32°C° 0.1 mm 1 mps 698 mmHg 56%
    13:00 +33°C° 0.1 mm 1 mps 698 mmHg 50%
    14:00 +32°C° 0.2 mm 1 mps 697 mmHg 55%
    15:00 +31°C° 0.2 mm 1 mps 696 mmHg 60%
    16:00 +30°C° 0.2 mm 1 mps 696 mmHg 66%
    17:00 +28°C° 0.1 mm 1 mps 696 mmHg 73%
    18:00 +26°C° 0.1 mm 1 mps 696 mmHg 80%
    19:00 +25°C° 0.1 mm 1 mps 697 mmHg 87%
    20:00 +22°C° 0 mm 0 mps 697 mmHg 88%
    21:00 +22°C° 0 mm 0 mps 698 mmHg 90%
    22:00 +21°C° 0 mm 0 mps 698 mmHg 92%
    23:00 +21°C° 0 mm 0 mps 698 mmHg 93%

    Day after tomorrow, 19 October, Friday

    Time Temperature Precipitation Wind Pressure Humidity
    00:00 +21°C° 0 mm 0 mps 698 mmHg 95%
    01:00 +20°C° 0 mm 0 mps 698 mmHg 96%
    02:00 +20°C° 0.1 mm 0 mps 698 mmHg 96%
    03:00 +20°C° 0.1 mm 0 mps 697 mmHg 97%
    04:00 +20°C° 0.1 mm 0 mps 697 mmHg 98%
    05:00 +20°C° 0 mm 0 mps 698 mmHg 96%
    06:00 +21°C° 0 mm 0 mps 698 mmHg 95%
    07:00 +21°C° 0 mm 0 mps 699 mmHg 94%
    08:00 +23°C° 0.1 mm 0 mps 699 mmHg 83%
    09:00 +26°C° 0.1 mm 0 mps 700 mmHg 72%
    10:00 +28°C° 0.1 mm 0 mps 701 mmHg 62%
    11:00 +29°C° 0.5 mm 0 mps 700 mmHg 60%
    12:00 +30°C° 0.5 mm 0 mps 699 mmHg 58%
    13:00 +31°C° 0.5 mm 0 mps 699 mmHg 57%
    14:00 +30°C° 0.3 mm 0 mps 698 mmHg 58%
    15:00 +30°C° 0.3 mm 0 mps 698 mmHg 60%
    16:00 +29°C° 0.3 mm 0 mps 697 mmHg 61%
    17:00 +27°C° 0.2 mm 0 mps 697 mmHg 69%
    18:00 +25°C° 0.2 mm 0 mps 698 mmHg 77%
    19:00 +23°C° 0.2 mm 0 mps 698 mmHg 85%
    20:00 +22°C° 0.4 mm 0 mps 698 mmHg 86%
    21:00 +22°C° 0.4 mm 0 mps 699 mmHg 88%
    22:00 +22°C° 0.4 mm 0 mps 700 mmHg 89%
    23:00 +21°C° 0.3 mm 0 mps 699 mmHg 90%

    20 October, Saturday

    Time Temperature Precipitation Wind Pressure Humidity
    00:00 +21°C° 0.3 mm 0 mps 699 mmHg 91%
    01:00 +21°C° 0.3 mm 0 mps 699 mmHg 91%
    02:00 +21°C° 0.5 mm 0 mps 699 mmHg 92%
    03:00 +21°C° 0.5 mm 0 mps 699 mmHg 93%
    04:00 +20°C° 0.5 mm 0 mps 699 mmHg 93%
    05:00 +20°C° 0.2 mm 0 mps 699 mmHg 93%
    06:00 +21°C° 0.2 mm 0 mps 700 mmHg 92%
    07:00 +21°C° 0.2 mm 0 mps 700 mmHg 92%
    08:00 +23°C° 0.2 mm 0 mps 701 mmHg 82%
    09:00 +26°C° 0.2 mm 0 mps 701 mmHg 72%
    10:00 +28°C° 0.2 mm 0 mps 702 mmHg 62%
    11:00 +29°C° 0.6 mm 0 mps 701 mmHg 62%
    12:00 +29°C° 0.6 mm 0 mps 700 mmHg 62%
    13:00 +30°C° 0.6 mm 0 mps 700 mmHg 62%
    14:00 +29°C° 1 mm 0 mps 699 mmHg 66%
    15:00 +28°C° 1 mm 0 mps 699 mmHg 69%
    16:00 +27°C° 1 mm 0 mps 698 mmHg 73%
    17:00 +26°C° 0.3 mm 0 mps 698 mmHg 77%
    18:00 +24°C° 0.3 mm 0 mps 699 mmHg 81%
    19:00 +23°C° 0.3 mm 0 mps 699 mmHg 86%
    20:00 +22°C° 0 mm 0 mps 699 mmHg 87%
    21:00 +22°C° 0 mm 0 mps 700 mmHg 88%
    22:00 +21°C° 0 mm 0 mps 700 mmHg 90%
    23:00 +21°C° 0.1 mm 0 mps 700 mmHg 91%

    21 October, Sunday

    Time Temperature Precipitation Wind Pressure Humidity
    00:00 +21°C° 0.1 mm 0 mps 699 mmHg 92%
    01:00 +21°C° 0.1 mm 0 mps 699 mmHg 93%
    02:00 +20°C° 0 mm 0 mps 699 mmHg 93%
    03:00 +20°C° 0 mm 0 mps 699 mmHg 93%
    04:00 +20°C° 0 mm 0 mps 699 mmHg 94%
    05:00 +20°C° 0 mm 0 mps 699 mmHg 93%
    06:00 +21°C° 0 mm 0 mps 699 mmHg 92%
    07:00 +21°C° 0 mm 0 mps 700 mmHg 91%
    08:00 +23°C° 0.3 mm 0 mps 700 mmHg 84%
    09:00 +25°C° 0.3 mm 0 mps 701 mmHg 76%
    10:00 +28°C° 0.3 mm 0 mps 701 mmHg 68%
    11:00 +28°C° 0.5 mm 0 mps 700 mmHg 65%
    12:00 +31°C° 0.5 mm 1 mps 700 mmHg 61%
    13:00 +32°C° 0.5 mm 1 mps 699 mmHg 57%
    14:00 +31°C° 0.9 mm 1 mps 698 mmHg 62%
    15:00 +30°C° 0.9 mm 1 mps 698 mmHg 67%
    16:00 +29°C° 0.9 mm 1 mps 697 mmHg 71%
    17:00 +28°C° 0.3 mm 1 mps 698 mmHg 77%
    18:00 +24°C° 0.3 mm 0 mps 698 mmHg 82%
    19:00 +22°C° 0.3 mm 0 mps 698 mmHg 87%
    20:00 +22°C° 0.1 mm 0 mps 698 mmHg 89%
    21:00 +22°C° 0.1 mm 0 mps 699 mmHg 90%
    22:00 +21°C° 0.1 mm 0 mps 699 mmHg 92%
    23:00 +21°C° 0 mm 0 mps 699 mmHg 93%

    22 October, Monday

    Time Temperature Precipitation Wind Pressure Humidity
    00:00 +21°C° 0 mm 0 mps 698 mmHg 94%
    01:00 +20°C° 0 mm 0 mps 698 mmHg 95%
    02:00 +20°C° 0 mm 0 mps 698 mmHg 96%
    03:00 +20°C° 0 mm 0 mps 698 mmHg 96%
    04:00 +20°C° 0 mm 0 mps 698 mmHg 97%
    05:00 +20°C° 0 mm 0 mps 698 mmHg 96%
    06:00 +20°C° 0 mm 0 mps 699 mmHg 95%
    07:00 +20°C° 0 mm 0 mps 699 mmHg 93%
    08:00 +23°C° 0 mm 0 mps 700 mmHg 80%
    09:00 +26°C° 0 mm 0 mps 700 mmHg 67%
    10:00 +29°C° 0 mm 0 mps 701 mmHg 54%
    11:00 +30°C° 0.3 mm 0 mps 700 mmHg 55%
    12:00 +32°C° 0.3 mm 1 mps 699 mmHg 55%
    13:00 +33°C° 0.3 mm 1 mps 698 mmHg 56%
    14:00 +32°C° 0.7 mm 1 mps 698 mmHg 58%
    15:00 +31°C° 0.7 mm 1 mps 697 mmHg 61%
    16:00 +30°C° 0.7 mm 1 mps 697 mmHg 64%
    17:00 +28°C° 0.8 mm 1 mps 697 mmHg 71%
    18:00 +26°C° 0.8 mm 1 mps 697 mmHg 78%
    19:00 +22°C° 0.8 mm 0 mps 698 mmHg 84%
    20:00 +22°C° 0.5 mm 0 mps 698 mmHg 87%
    21:00 +21°C° 0.5 mm 0 mps 698 mmHg 89%
    22:00 +21°C° 0.5 mm 0 mps 699 mmHg 91%
    23:00 +20°C° 0.4 mm 0 mps 699 mmHg 92%
    Show more